Location: Pedholt
(56.0260°N, 10.2097°E)
Time: 02:53:43
(UTC+00:00)

SR - Pass Details

Date: 03 August 2021
Orbit: 581 x 873 km, 66.7° (Epoch: 27 September)

Event Time Altitude Azimuth Distance (km) Brightness Sun altitude
Rises 08:57:33 0° 285° (WNW) 3,336 ? 42.4°
Reaches altitude 10° 09:00:28 10° 298° (WNW) 2,357 ? 42.7°
Maximum altitude 09:04:56 26° 354° (N) 1,468 ? 43.2°
Drops below altitude 10° 09:09:07 10° 50° (NE) 2,194 ? 43.6°
Sets 09:11:44 0° 64° (ENE) 3,059 ? 43.9°
